When you browse on this site, cookies collect data to enhance your experience and personalize the content and advertising you see.
Visit our Privacy Policy to learn more. By continuing to use the site, you agree to this use of cookies and data.
  • In Hungary
  • List of Countries
  • For 7 days
  • Water Temperature
  • Weather Map
  • News
  • Weather Widgets
  • user-avatar
    Login

    Hourly Weather Firavitoba

    Today, 8 April, Wednesday

    Time Temperature Precipitation Wind Pressure Humidity
    00:00 +13°C° 0 mm 0 mps 562 mmHg 93%
    01:00 +13°C° 0 mm 0 mps 562 mmHg 93%
    02:00 +13°C° 0 mm 0 mps 561 mmHg 93%
    03:00 +12°C° 0 mm 0 mps 561 mmHg 93%
    04:00 +12°C° 0 mm 0 mps 560 mmHg 94%
    05:00 +13°C° 0 mm 0 mps 561 mmHg 92%
    06:00 +13°C° 0 mm 0 mps 562 mmHg 90%
    07:00 +14°C° 0 mm 0 mps 562 mmHg 88%
    08:00 +18°C° 0.1 mm 1 mps 563 mmHg 82%
    09:00 +20°C° 0.1 mm 1 mps 564 mmHg 75%
    10:00 +22°C° 0.1 mm 1 mps 565 mmHg 68%
    11:00 +22°C° 0.5 mm 1 mps 565 mmHg 68%
    12:00 +21°C° 0.5 mm 2 mps 565 mmHg 68%
    13:00 +23°C° 0.5 mm 2 mps 564 mmHg 68%
    14:00 +21°C° 1 mm 2 mps 563 mmHg 72%
    15:00 +21°C° 1 mm 1 mps 563 mmHg 76%
    16:00 +20°C° 1 mm 1 mps 562 mmHg 81%
    17:00 +19°C° 0.7 mm 1 mps 562 mmHg 85%
    18:00 +18°C° 0.7 mm 1 mps 561 mmHg 90%
    19:00 +16°C° 0.7 mm 1 mps 561 mmHg 94%
    20:00 +15°C° 0.3 mm 1 mps 562 mmHg 94%
    21:00 +15°C° 0.3 mm 1 mps 562 mmHg 94%
    22:00 +15°C° 0.3 mm 1 mps 562 mmHg 94%
    23:00 +15°C° 0.1 mm 1 mps 562 mmHg 94%

    Tomorrow, 9 April, Thursday

    Time Temperature Precipitation Wind Pressure Humidity
    00:00 +14°C° 0.1 mm 1 mps 561 mmHg 94%
    01:00 +14°C° 0.1 mm 1 mps 561 mmHg 94%
    02:00 +13°C° 0.1 mm 0 mps 561 mmHg 94%
    03:00 +13°C° 0.1 mm 0 mps 561 mmHg 95%
    04:00 +13°C° 0.1 mm 0 mps 560 mmHg 95%
    05:00 +13°C° 0 mm 0 mps 561 mmHg 93%
    06:00 +14°C° 0 mm 0 mps 562 mmHg 92%
    07:00 +15°C° 0 mm 1 mps 562 mmHg 90%
    08:00 +16°C° 0.1 mm 1 mps 563 mmHg 85%
    09:00 +19°C° 0.1 mm 1 mps 564 mmHg 79%
    10:00 +20°C° 0.1 mm 1 mps 565 mmHg 73%
    11:00 +20°C° 0.5 mm 1 mps 564 mmHg 75%
    12:00 +21°C° 0.5 mm 1 mps 564 mmHg 76%
    13:00 +20°C° 0.5 mm 2 mps 563 mmHg 77%
    14:00 +19°C° 0.9 mm 2 mps 563 mmHg 80%
    15:00 +18°C° 0.9 mm 2 mps 562 mmHg 82%
    16:00 +19°C° 0.9 mm 1 mps 561 mmHg 84%
    17:00 +18°C° 1.6 mm 1 mps 561 mmHg 88%
    18:00 +16°C° 1.6 mm 1 mps 561 mmHg 92%
    19:00 +15°C° 1.6 mm 1 mps 561 mmHg 96%
    20:00 +15°C° 1.2 mm 1 mps 562 mmHg 96%
    21:00 +15°C° 1.2 mm 1 mps 562 mmHg 96%
    22:00 +14°C° 1.2 mm 0 mps 563 mmHg 96%
    23:00 +13°C° 0.1 mm 0 mps 562 mmHg 95%

    Day after tomorrow, 10 April, Friday

    Time Temperature Precipitation Wind Pressure Humidity
    00:00 +14°C° 0.1 mm 1 mps 562 mmHg 94%
    01:00 +14°C° 0.1 mm 1 mps 561 mmHg 94%
    02:00 +14°C° 0 mm 1 mps 561 mmHg 93%
    03:00 +13°C° 0 mm 1 mps 560 mmHg 92%
    04:00 +13°C° 0 mm 1 mps 560 mmHg 91%
    05:00 +13°C° 0 mm 1 mps 561 mmHg 89%
    06:00 +14°C° 0 mm 1 mps 561 mmHg 86%
    07:00 +14°C° 0 mm 1 mps 562 mmHg 84%
    08:00 +16°C° 0.1 mm 1 mps 563 mmHg 78%
    09:00 +19°C° 0.1 mm 1 mps 564 mmHg 72%
    10:00 +21°C° 0.1 mm 1 mps 565 mmHg 66%
    11:00 +21°C° 0.5 mm 1 mps 565 mmHg 67%
    12:00 +20°C° 0.5 mm 2 mps 564 mmHg 67%
    13:00 +21°C° 0.5 mm 2 mps 564 mmHg 68%
    14:00 +20°C° 0.7 mm 2 mps 563 mmHg 72%
    15:00 +19°C° 0.7 mm 2 mps 562 mmHg 77%
    16:00 +19°C° 0.7 mm 1 mps 561 mmHg 81%
    17:00 +18°C° 0.8 mm 1 mps 561 mmHg 86%
    18:00 +16°C° 0.8 mm 1 mps 561 mmHg 91%
    19:00 +15°C° 0.8 mm 1 mps 561 mmHg 95%
    20:00 +14°C° 2 mm 0 mps 561 mmHg 95%
    21:00 +13°C° 2 mm 0 mps 562 mmHg 95%
    22:00 +13°C° 2 mm 0 mps 562 mmHg 96%
    23:00 +13°C° 1.2 mm 0 mps 562 mmHg 95%

    11 April, Saturday

    Time Temperature Precipitation Wind Pressure Humidity
    00:00 +13°C° 1.2 mm 0 mps 561 mmHg 94%
    01:00 +13°C° 1.2 mm 0 mps 561 mmHg 94%
    02:00 +12°C° 0.1 mm 0 mps 561 mmHg 93%
    03:00 +12°C° 0.1 mm 0 mps 561 mmHg 93%
    04:00 +12°C° 0.1 mm 0 mps 561 mmHg 92%
    05:00 +12°C° 0 mm 0 mps 561 mmHg 90%
    06:00 +13°C° 0 mm 0 mps 562 mmHg 88%
    07:00 +14°C° 0 mm 1 mps 563 mmHg 85%
    08:00 +16°C° 0 mm 1 mps 563 mmHg 78%
    09:00 +19°C° 0 mm 1 mps 564 mmHg 70%
    10:00 +21°C° 0 mm 1 mps 565 mmHg 63%
    11:00 +21°C° 0.1 mm 1 mps 565 mmHg 65%
    12:00 +21°C° 0.1 mm 1 mps 564 mmHg 66%
    13:00 +21°C° 0.1 mm 1 mps 563 mmHg 68%
    14:00 +20°C° 0.7 mm 1 mps 563 mmHg 73%
    15:00 +20°C° 0.7 mm 1 mps 562 mmHg 78%
    16:00 +19°C° 0.7 mm 1 mps 561 mmHg 83%
    17:00 +18°C° 0.8 mm 1 mps 561 mmHg 87%
    18:00 +16°C° 0.8 mm 1 mps 561 mmHg 91%
    19:00 +16°C° 0.8 mm 1 mps 562 mmHg 94%
    20:00 +15°C° 1.5 mm 1 mps 562 mmHg 94%
    21:00 +15°C° 1.5 mm 1 mps 562 mmHg 94%
    22:00 +14°C° 1.5 mm 1 mps 562 mmHg 95%
    23:00 +14°C° 0.6 mm 1 mps 562 mmHg 93%

    12 April, Sunday

    Time Temperature Precipitation Wind Pressure Humidity
    00:00 +13°C° 0.6 mm 1 mps 561 mmHg 92%
    01:00 +13°C° 0.6 mm 1 mps 561 mmHg 91%
    02:00 +12°C° 0 mm 1 mps 561 mmHg 89%
    03:00 +12°C° 0 mm 1 mps 560 mmHg 87%
    04:00 +11°C° 0 mm 1 mps 560 mmHg 86%
    05:00 +12°C° 0 mm 1 mps 561 mmHg 84%
    06:00 +12°C° 0 mm 1 mps 561 mmHg 83%
    07:00 +13°C° 0 mm 1 mps 562 mmHg 81%
    08:00 +15°C° 0 mm 1 mps 563 mmHg 72%
    09:00 +18°C° 0 mm 1 mps 564 mmHg 62%
    10:00 +20°C° 0 mm 1 mps 566 mmHg 53%
    11:00 +21°C° 0 mm 1 mps 565 mmHg 53%
    12:00 +22°C° 0 mm 1 mps 565 mmHg 53%
    13:00 +23°C° 0 mm 1 mps 565 mmHg 52%
    14:00 +22°C° 0.2 mm 1 mps 564 mmHg 60%
    15:00 +21°C° 0.2 mm 1 mps 563 mmHg 67%
    16:00 +20°C° 0.2 mm 1 mps 563 mmHg 75%
    17:00 +19°C° 0.3 mm 1 mps 563 mmHg 81%
    18:00 +16°C° 0.3 mm 1 mps 562 mmHg 87%
    19:00 +15°C° 0.3 mm 1 mps 562 mmHg 93%
    20:00 +15°C° 0.2 mm 1 mps 562 mmHg 93%
    21:00 +15°C° 0.2 mm 1 mps 563 mmHg 94%
    22:00 +14°C° 0.2 mm 1 mps 563 mmHg 94%
    23:00 +14°C° 0.1 mm 1 mps 562 mmHg 93%

    13 April, Monday

    Time Temperature Precipitation Wind Pressure Humidity
    00:00 +14°C° 0.1 mm 1 mps 562 mmHg 93%
    01:00 +13°C° 0.1 mm 1 mps 562 mmHg 93%
    02:00 +13°C° 0 mm 1 mps 562 mmHg 93%
    03:00 +13°C° 0 mm 1 mps 561 mmHg 93%
    04:00 +12°C° 0 mm 1 mps 561 mmHg 92%
    05:00 +13°C° 0 mm 1 mps 562 mmHg 90%
    06:00 +13°C° 0 mm 1 mps 562 mmHg 88%
    07:00 +13°C° 0 mm 1 mps 563 mmHg 87%
    08:00 +15°C° 0 mm 1 mps 564 mmHg 79%
    09:00 +18°C° 0 mm 1 mps 565 mmHg 71%
    10:00 +20°C° 0 mm 1 mps 566 mmHg 63%
    11:00 +21°C° 0.1 mm 1 mps 566 mmHg 59%
    12:00 +22°C° 0.1 mm 1 mps 565 mmHg 56%
    13:00 +23°C° 0.1 mm 1 mps 565 mmHg 52%
    14:00 +22°C° 0.2 mm 1 mps 564 mmHg 58%
    15:00 +21°C° 0.2 mm 1 mps 563 mmHg 63%
    16:00 +19°C° 0.2 mm 2 mps 563 mmHg 69%
    17:00 +19°C° 0.2 mm 1 mps 562 mmHg 77%
    18:00 +16°C° 0.2 mm 1 mps 562 mmHg 85%
    19:00 +14°C° 0.2 mm 0 mps 561 mmHg 94%
    20:00 +13°C° 0.1 mm 0 mps 561 mmHg 94%
    21:00 +13°C° 0.1 mm 0 mps 562 mmHg 94%
    22:00 +13°C° 0.1 mm 0 mps 562 mmHg 94%
    23:00 +13°C° 0.1 mm 0 mps 562 mmHg 95%
    Show more